Tracking 29892 objects as of 21-Nov-2024
HD Live streaming from Space Station
objects crossing your sky now

THORAD AGENA D DEB

Track THORAD AGENA D DEB now!
10-day predictions


NORAD ID: 4911
Int'l Code: 1970-025FH
Perigee: 760.4 km
Apogee: 853.1 km
Inclination: 100.0 °
Period: 100.9 minutes
Semi major axis: 7177 km
RCS: 0.057 m2 (small)
Launch date: April 8, 1970
Source: United States (US)
Launch site: AIR FORCE WESTERN TEST RANGE (AFWTR)

Note: This is SATELLITE DEBRIS
Your satellite tracking list
Your tracking list is empty




NASA's NSSDC Master Catalog

Two Line Element Set (TLE):
1 04911U 70025FH  24324.98334090  .00007160  00000-0  28605-2 0  9997
2 04911  99.9767 110.6688 0064592 132.0379 228.6320 14.27656033789504
Source of the keplerian elements: AFSPC